Location: Hains Lake
(37.8540°N, 99.8578°W)
Time: 06:59:33
(UTC+00:00)

Vanguard 3 - Pass Details

Date: 26 April 2021
Orbit: 508 x 3262 km, 33.3° (Epoch: 09 May)

Event Time Altitude Azimuth Distance (km) Brightness Sun altitude
Exits shadow 09:23:58 12° 125° (SE) 1,621 8.8 -25.4°
Drops below altitude 10° 09:24:17 10° 123° (ESE) 1,738 9.0 -25.3°
Sets 09:26:22 0° 115° (ESE) 2,592 10.0 -25.0°
